IK0XIH-3 Latina IT current weather conditions

sailwx.info

Wind from 285

Air temperature 15.0° C
Dewpoint 12.1° C

Last reported at 2019-Dec-08 15:58 UTC.
Time now 2019-Dec-08 16:36 UTC

Location: N 41°30' E 012°55'.
View on Google Maps.

See reports from other nearby stations

  
Tides and Currents Weather Stations Pressure Air Temp Water Temp Dewpoint Dewpoint Depression Visibility Wind Speed Wind Dir Waves Ship Positions
date/time (UTC)wind fromknots sea level pressurealtimeterstation pressurevisibilityair tempwater tempwave heightnotes
2019-Dec-08 15:58 285 15.0
2019-Dec-08 15:53 285 15.0
2019-Dec-08 15:48 285 15.0
2019-Dec-08 15:43 285 15.6
2019-Dec-08 15:38 284 15.6
2019-Dec-08 15:33 126 15.6
2019-Dec-08 15:28 126 15.6
2019-Dec-08 15:23 126 15.6
2019-Dec-08 15:18 127 15.6
2019-Dec-08 15:13 127 15.6
2019-Dec-08 15:08 126 15.6
2019-Dec-08 15:03 126 15.6
2019-Dec-08 14:58 126 15.6
2019-Dec-08 14:53 127 15.6
2019-Dec-08 14:48 127 15.6
2019-Dec-08 14:43 126 16.1
2019-Dec-08 14:38 127 16.1
2019-Dec-08 14:33 127 16.1
2019-Dec-08 14:28 127 16.1
2019-Dec-08 14:23 127 16.1
2019-Dec-08 14:18 127 16.1
2019-Dec-08 14:13 127 16.1
2019-Dec-08 14:08 127 16.1
2019-Dec-08 14:03 127 16.1
2019-Dec-08 13:58 127 16.1
2019-Dec-08 13:53 127 16.1
2019-Dec-08 13:48 127 16.1
2019-Dec-08 13:43 127 16.1
2019-Dec-08 13:38 127 16.1
2019-Dec-08 13:33 127 16.1
2019-Dec-08 13:28 127 16.1
2019-Dec-08 13:23 127 16.1
2019-Dec-08 13:18 127 16.1
2019-Dec-08 13:13 127 16.1
2019-Dec-08 13:08 127 16.1
2019-Dec-08 13:03 127 16.1
2019-Dec-08 12:58 127 16.1
2019-Dec-08 12:53 127 16.1
2019-Dec-08 12:48 127 16.7
2019-Dec-08 12:43 127 16.1
2019-Dec-08 12:38 127 16.1
2019-Dec-08 12:33 127 16.1
2019-Dec-08 12:28 127 16.1
2019-Dec-08 12:23 127 16.1
2019-Dec-08 12:18 127 16.1
2019-Dec-08 12:13 126 16.1
2019-Dec-08 12:08 126 16.1
2019-Dec-08 12:03 163 16.1
2019-Dec-08 11:58 162 16.7
2019-Dec-08 11:53 162 16.1
2019-Dec-08 11:48 162 16.1
2019-Dec-08 11:43 162 16.1
2019-Dec-08 11:38 162 16.1
2019-Dec-08 11:33 161 16.1
2019-Dec-08 11:28 169 16.1
2019-Dec-08 11:23 131 16.1
2019-Dec-08 11:18 164 16.1
2019-Dec-08 11:13 155 15.6
2019-Dec-08 11:08 144 15.6
2019-Dec-08 11:03 198 15.6
2019-Dec-08 10:58 166 15.6
2019-Dec-08 10:53 192 15.0
2019-Dec-08 10:48 194 15.0
2019-Dec-08 10:43 201 14.4
2019-Dec-08 10:38 180 14.4
2019-Dec-08 10:33 165 14.4
2019-Dec-08 10:28 165 13.9
2019-Dec-08 10:23 134 13.9
2019-Dec-08 10:18 128 13.9
2019-Dec-08 10:13 076 13.9
2019-Dec-08 10:08 076 13.3
2019-Dec-08 10:03 076 13.3
2019-Dec-08 09:58 076 13.3
2019-Dec-08 09:53 076 13.3
2019-Dec-08 09:48 076 13.3
2019-Dec-08 09:43 075 13.3
2019-Dec-08 09:38 075 12.8
2019-Dec-08 09:33 075 12.8
2019-Dec-08 09:28 075 12.2
2019-Dec-08 09:23 075 12.2
2019-Dec-08 09:18 075 12.2
2019-Dec-08 09:13 075 12.2
2019-Dec-08 09:08 075 11.7
2019-Dec-08 09:03 075 11.7
2019-Dec-08 08:58 075 11.7
2019-Dec-08 08:53 075 11.7
2019-Dec-08 08:48 075 11.1
2019-Dec-08 08:43 075 11.1
2019-Dec-08 08:38 075 11.1
2019-Dec-08 08:33 075 11.1
2019-Dec-08 08:28 075 11.1
2019-Dec-08 08:23 075 11.1
2019-Dec-08 08:18 075 11.1
2019-Dec-08 08:13 075 11.1
2019-Dec-08 08:08 075 11.1
2019-Dec-08 08:03 075 11.1
2019-Dec-08 07:58 075 11.1
2019-Dec-08 07:53 075 11.1
2019-Dec-08 07:48 075 10.6
2019-Dec-08 07:43 075 10.6
2019-Dec-08 07:38 075 10.6
2019-Dec-08 07:33 075 10.6
2019-Dec-08 07:28 075 10.6
2019-Dec-08 07:23 075 10.6
2019-Dec-08 07:18 075 10.6
2019-Dec-08 07:13 075 10.6
2019-Dec-08 07:08 075 10.0
2019-Dec-08 07:03 075 10.0
2019-Dec-08 06:58 075 10.0
2019-Dec-08 06:53 075 10.0
2019-Dec-08 06:48 075 10.0
2019-Dec-08 06:43 075 9.4
2019-Dec-08 06:38 075 9.4
2019-Dec-08 06:33 075 9.4
2019-Dec-08 06:28 075 9.4
2019-Dec-08 06:23 075 9.4
2019-Dec-08 06:18 075 9.4
2019-Dec-08 06:13 075 9.4
2019-Dec-08 06:08 076 9.4
2019-Dec-08 06:03 076 9.4
2019-Dec-08 05:58 076 8.9
2019-Dec-08 05:53 076 1 gusting 3 9.4
2019-Dec-08 05:48 076 2 gusting 2 9.4
2019-Dec-08 05:43 053 9.4
2019-Dec-08 05:38 053 9.4
2019-Dec-08 05:33 053 9.4
2019-Dec-08 05:28 053 9.4
2019-Dec-08 05:23 053 9.4
2019-Dec-08 05:18 053 0 gusting 2 8.9
2019-Dec-08 05:13 220 9.4
2019-Dec-08 05:08 219 10.0
2019-Dec-08 05:03 219 10.0
2019-Dec-08 04:58 219 10.0
2019-Dec-08 04:53 219 10.0
2019-Dec-08 04:48 119 10.0
2019-Dec-08 04:43 119 9.4
2019-Dec-08 04:38 119 10.0
2019-Dec-08 04:33 119 10.0
2019-Dec-08 04:28 119 10.0
2019-Dec-08 04:23 119 9.4
2019-Dec-08 04:18 119 9.4
2019-Dec-08 04:13 119 10.0
2019-Dec-08 04:08 119 9.4
2019-Dec-08 04:03 119 9.4
2019-Dec-08 03:58 119 9.4
2019-Dec-08 03:53 119 9.4
2019-Dec-08 03:48 119 9.4
2019-Dec-08 03:43 119 9.4
2019-Dec-08 03:38 119 9.4
2019-Dec-08 03:33 117 9.4
2019-Dec-08 03:28 117 9.4
2019-Dec-08 03:23 117 9.4
2019-Dec-08 03:18 117 1 gusting 2 9.4
2019-Dec-08 03:13 150 9.4
2019-Dec-08 03:03 211 9.4
2019-Dec-08 02:58 211 9.4
2019-Dec-08 02:53 211 9.4
2019-Dec-08 02:48 272 9.4
2019-Dec-08 02:43 272 9.4
2019-Dec-08 02:38 272 9.4
2019-Dec-08 02:33 267 1 gusting 2 8.9
2019-Dec-08 02:28 267 1 gusting 2 8.9
2019-Dec-08 02:23 267 1 gusting 2 8.9
2019-Dec-08 02:18 276 1 gusting 1 8.9
2019-Dec-08 02:13 276 0 gusting 1 8.9
2019-Dec-08 02:08 015 9.4
2019-Dec-08 02:03 015 9.4
2019-Dec-08 01:58 327 9.4
2019-Dec-08 01:53 274 9.4
2019-Dec-08 01:48 274 9.4
2019-Dec-08 01:43 274 9.4
2019-Dec-08 01:38 274 9.4
2019-Dec-08 01:33 274 9.4
2019-Dec-08 01:28 274 9.4
2019-Dec-08 01:23 274 8.9
2019-Dec-08 01:18 274 8.9
2019-Dec-08 01:13 217 8.9
2019-Dec-08 01:08 217 8.9
2019-Dec-08 01:03 217 8.9
2019-Dec-08 00:58 217 8.9
2019-Dec-08 00:53 217 8.9
2019-Dec-08 00:48 217 8.9
2019-Dec-08 00:43 217 8.3
2019-Dec-08 00:38 217 8.3
2019-Dec-08 00:33 217 8.9
2019-Dec-08 00:28 217 8.3
2019-Dec-08 00:23 217 8.3
2019-Dec-08 00:18 217 8.3
2019-Dec-08 00:13 217 8.3
2019-Dec-08 00:08 217 8.3
2019-Dec-08 00:03 217 8.9
2019-Dec-07 23:58 217 8.9
2019-Dec-07 23:53 217 8.9
2019-Dec-07 23:48 217 8.9
2019-Dec-07 23:43 217 8.9
2019-Dec-07 23:38 217 8.3
2019-Dec-07 23:33 217 8.3
2019-Dec-07 23:28 217 8.3
2019-Dec-07 23:23 217 8.3
2019-Dec-07 23:18 288 8.9
2019-Dec-07 23:13 288 8.9
2019-Dec-07 23:08 287 8.9
2019-Dec-07 23:03 287 8.9
2019-Dec-07 22:58 287 8.9
2019-Dec-07 22:53 287 8.9
2019-Dec-07 22:48 287 8.9
2019-Dec-07 22:43 287 8.9
2019-Dec-07 22:38 287 8.9
2019-Dec-07 22:33 287 8.9
2019-Dec-07 22:28 287 9.4
2019-Dec-07 22:23 287 9.4
2019-Dec-07 22:18 287 9.4
2019-Dec-07 22:13 287 9.4
2019-Dec-07 22:08 287 9.4
2019-Dec-07 22:03 287 9.4
2019-Dec-07 21:58 287 9.4
2019-Dec-07 21:53 287 9.4
2019-Dec-07 21:48 287 9.4
2019-Dec-07 21:43 287 9.4
2019-Dec-07 21:38 287 1 gusting 2 9.4
2019-Dec-07 21:33 296 10.0
2019-Dec-07 21:28 296 10.0
2019-Dec-07 21:23 296 10.0
2019-Dec-07 21:18 296 10.0
2019-Dec-07 21:13 296 10.0
2019-Dec-07 21:08 296 10.0
2019-Dec-07 21:03 296 10.6
2019-Dec-07 20:58 296 10.6
2019-Dec-07 20:53 296 10.0
2019-Dec-07 20:48 296 10.6
2019-Dec-07 20:43 296 10.6
2019-Dec-07 20:38 296 10.6
2019-Dec-07 20:33 296 10.6
2019-Dec-07 20:28 296 10.6
2019-Dec-07 20:23 296 10.6
2019-Dec-07 20:18 296 10.6
2019-Dec-07 20:13 296 10.6
2019-Dec-07 20:08 296 10.6
2019-Dec-07 20:03 302 11.1
2019-Dec-07 19:58 302 11.1
2019-Dec-07 19:53 302 11.7
2019-Dec-07 19:48 302 11.1
2019-Dec-07 19:43 302 11.7
2019-Dec-07 19:38 302 11.7
2019-Dec-07 19:33 302 11.7
2019-Dec-07 19:28 302 1 gusting 2 11.7
2019-Dec-07 19:23 259 11.7
2019-Dec-07 19:18 259 11.7
2019-Dec-07 19:13 259 11.7
2019-Dec-07 19:08 259 11.7
2019-Dec-07 19:03 259 1 gusting 2 11.7
2019-Dec-07 18:58 259 12.2
2019-Dec-07 18:53 259 11.7
2019-Dec-07 18:48 330 12.2
2019-Dec-07 18:43 330 12.2
2019-Dec-07 18:38 329 12.2
2019-Dec-07 18:33 328 11.7
2019-Dec-07 18:28 328 11.7
2019-Dec-07 18:23 328 11.7
2019-Dec-07 18:18 328 12.2
2019-Dec-07 18:13 328 11.7
2019-Dec-07 18:08 328 11.7
2019-Dec-07 18:03 328 11.7
2019-Dec-07 17:58 038 12.2
2019-Dec-07 17:53 038 0 gusting 2 12.2
2019-Dec-07 17:48 032 1 gusting 1 12.2
2019-Dec-07 17:43 032 12.8
2019-Dec-07 17:38 034 12.8
2019-Dec-07 17:33 034 12.8
2019-Dec-07 17:28 034 13.3
2019-Dec-07 17:23 034 0 gusting 1 13.3
2019-Dec-07 17:18 034 12.8
2019-Dec-07 17:13 034 12.2
2019-Dec-07 17:08 231 1 gusting 1 12.8
2019-Dec-07 17:03 231 12.8
2019-Dec-07 16:58 231 12.8
2019-Dec-07 16:53 111 13.3
2019-Dec-07 16:48 111 13.3
2019-Dec-07 16:43 111 13.3
2019-Dec-07 16:38 111 13.3
2019-Dec-07 16:33 111 13.3
2019-Dec-07 16:28 110 13.9
2019-Dec-07 16:23 110 13.9
2019-Dec-07 16:18 110 13.9
2019-Dec-07 16:13 110 13.9
2019-Dec-07 16:08 110 13.9
2019-Dec-07 16:03 110 13.9
2019-Dec-07 15:58 110 13.9
2019-Dec-07 15:53 110 13.9
2019-Dec-07 15:48 110 14.4
2019-Dec-07 15:43 110 14.4
2019-Dec-07 15:38 110 14.4
2019-Dec-07 15:33 110 14.4
2019-Dec-07 15:28 110 14.4
2019-Dec-07 15:23 110 14.4
2019-Dec-07 15:18 110 14.4
2019-Dec-07 15:13 110 15.0
2019-Dec-07 15:08 110 15.0
2019-Dec-07 15:03 110 0 gusting 1 15.0
2019-Dec-07 14:58 110 1 gusting 2 15.0
2019-Dec-07 14:53 222 15.0
2019-Dec-07 14:48 222 15.0
2019-Dec-07 14:43 222 15.0
2019-Dec-07 14:38 222 0 gusting 1 15.0
2019-Dec-07 14:33 222 15.0
2019-Dec-07 14:28 222 15.0
2019-Dec-07 14:23 222 15.0
2019-Dec-07 14:18 222 15.0
2019-Dec-07 14:13 222 15.0
2019-Dec-07 14:08 222 15.0
2019-Dec-07 14:03 222 15.0
2019-Dec-07 13:58 222 15.0
2019-Dec-07 13:53 222 0 gusting 1 15.0
2019-Dec-07 13:48 222 15.0
2019-Dec-07 13:43 222 15.0
2019-Dec-07 13:38 222 15.0
2019-Dec-07 13:33 222 15.0
2019-Dec-07 13:28 222 0 gusting 1 15.0
2019-Dec-07 13:23 222 0 gusting 1 15.0
2019-Dec-07 13:18 195 0 gusting 1 15.0
2019-Dec-07 13:13 277 15.0
2019-Dec-07 13:08 277 15.0
2019-Dec-07 13:03 277 15.0
2019-Dec-07 12:58 277 0 gusting 2 15.0
2019-Dec-07 12:53 284 2 gusting 2 15.0
2019-Dec-07 12:48 238 0 gusting 1 15.0
2019-Dec-07 12:43 238 1 gusting 2 15.0
2019-Dec-07 12:38 212 0 gusting 2 15.0
2019-Dec-07 12:33 215 1 gusting 3 15.0
2019-Dec-07 12:28 227 0 gusting 3 15.0
2019-Dec-07 12:23 224 1 gusting 3 15.0
2019-Dec-07 12:18 225 1 gusting 2 15.0
2019-Dec-07 12:13 234 2 gusting 4 15.0
2019-Dec-07 12:08 231 2 gusting 3 15.6
2019-Dec-07 12:03 252 2 gusting 2 15.6
2019-Dec-07 11:58 254 2 gusting 3 15.6
2019-Dec-07 11:53 254 3 gusting 3 15.6
2019-Dec-07 11:48 236 1 gusting 3 15.6
2019-Dec-07 11:43 254 1 gusting 3 15.6
2019-Dec-07 11:38 261 1 gusting 3 15.6
2019-Dec-07 11:33 259 15.6
2019-Dec-07 11:28 256 0 gusting 2 15.6
2019-Dec-07 11:23 276 2 gusting 3 15.6
2019-Dec-07 11:18 193 1 gusting 2 15.6
2019-Dec-07 11:13 178 15.6
2019-Dec-07 11:08 176 16.1
2019-Dec-07 11:03 133 16.1
2019-Dec-07 10:58 133 16.1
2019-Dec-07 10:53 132 16.1
2019-Dec-07 10:48 132 16.1
2019-Dec-07 10:43 132 1 gusting 2 16.7
2019-Dec-07 10:38 081 16.7
2019-Dec-07 10:33 081 16.1
2019-Dec-07 10:28 081 16.1
2019-Dec-07 10:23 092 0 gusting 1 16.1
2019-Dec-07 10:18 092 15.6
2019-Dec-07 10:13 101 1 gusting 2 15.0
2019-Dec-07 10:08 101 2 gusting 2 15.0
2019-Dec-07 10:03 176 15.0
2019-Dec-07 09:58 176 15.0
2019-Dec-07 09:53 176 2 gusting 2 15.0
2019-Dec-07 09:48 176 15.0
2019-Dec-07 09:43 176 14.4
2019-Dec-07 09:38 176 0 gusting 1 15.0
2019-Dec-07 09:33 176 14.4
2019-Dec-07 09:28 176 14.4
2019-Dec-07 09:23 172 1 gusting 1 14.4
2019-Dec-07 09:08 160 2 gusting 4 13.9
2019-Dec-07 09:03 154 1 gusting 3 13.3
2019-Dec-07 08:58 169 13.3
2019-Dec-07 08:53 134 1 gusting 4 13.3
2019-Dec-07 08:48 173 2 gusting 3 13.3
2019-Dec-07 08:43 146 12.8
2019-Dec-07 08:38 103 12.8
2019-Dec-07 08:33 096 12.8
2019-Dec-07 08:28 096 12.2
2019-Dec-07 08:23 096 12.2
2019-Dec-07 08:18 039 11.7
2019-Dec-07 08:13 039 12.2
2019-Dec-07 08:08 039 11.7
2019-Dec-07 08:03 039 11.1
2019-Dec-07 07:58 039 11.1
2019-Dec-07 07:53 039 11.1
2019-Dec-07 07:48 039 11.1
2019-Dec-07 07:43 039 11.1
2019-Dec-07 07:38 039 11.1
2019-Dec-07 07:33 039 11.1
2019-Dec-07 07:28 049 2 gusting 2 11.1
2019-Dec-07 07:23 057 11.1
2019-Dec-07 07:18 057 11.1
2019-Dec-07 07:13 057 11.1
2019-Dec-07 07:08 057 1 gusting 2 11.1
2019-Dec-07 07:03 057 11.1
2019-Dec-07 06:58 066 3 gusting 4 11.1
2019-Dec-07 06:53 084 11.1
2019-Dec-07 06:48 084 11.1
2019-Dec-07 06:43 084 11.1
2019-Dec-07 06:38 084 0 gusting 2 11.1
2019-Dec-07 06:33 084 0 11.1
2019-Dec-07 06:28 078 11.1
2019-Dec-07 06:23 069 3 gusting 3 11.1
2019-Dec-07 06:18 262 11.1
2019-Dec-07 06:13 300 11.1
2019-Dec-07 06:08 290 5 gusting 5 10.6
2019-Dec-07 06:03 084 10.6
2019-Dec-07 05:58 084 10.6
2019-Dec-07 05:53 084 10.6
2019-Dec-07 05:48 084 1 gusting 2 10.6
2019-Dec-07 05:43 345 10.6
2019-Dec-07 05:38 025 2 gusting 3 10.6
2019-Dec-07 05:33 170 11.1
2019-Dec-07 05:28 173 10.6
2019-Dec-07 05:23 173 10.6
2019-Dec-07 05:18 173 10.6
2019-Dec-07 05:13 171 10.6
2019-Dec-07 05:08 131 10.6
2019-Dec-07 05:03 125 10.6
2019-Dec-07 04:58 227 10.6
2019-Dec-07 04:53 227 10.6
2019-Dec-07 04:48 227 10.6
2019-Dec-07 04:43 227 10.6
2019-Dec-07 04:38 237 11.1
2019-Dec-07 04:33 237 11.1
2019-Dec-07 04:28 237 11.1
2019-Dec-07 04:23 237 11.1
2019-Dec-07 04:18 237 11.1
2019-Dec-07 04:13 237 11.1
2019-Dec-07 04:08 236 11.1
2019-Dec-07 04:03 236 11.1
2019-Dec-07 03:58 236 11.1
2019-Dec-07 03:53 236 11.1
2019-Dec-07 03:48 236 11.1
2019-Dec-07 03:43 055 11.1
2019-Dec-07 03:38 055 11.1
2019-Dec-07 03:33 055 11.1
2019-Dec-07 03:28 055 11.1
2019-Dec-07 03:23 038 11.1
2019-Dec-07 03:18 038 11.1
2019-Dec-07 03:13 038 11.1
2019-Dec-07 03:08 038 11.1
2019-Dec-07 03:03 350 11.1
2019-Dec-07 02:58 333 11.1
2019-Dec-07 02:53 333 11.1
2019-Dec-07 02:48 320 0 gusting 1 11.1
2019-Dec-07 02:43 248 10.6
2019-Dec-07 02:38 248 2 gusting 3 10.6
2019-Dec-07 02:33 005 10.6
2019-Dec-07 02:28 012 2 gusting 4 10.0
2019-Dec-07 02:23 300 1 gusting 6 9.4
2019-Dec-07 02:18 233 9.4
2019-Dec-07 02:13 233 9.4
2019-Dec-07 02:08 233 9.4
2019-Dec-07 02:03 233 9.4
2019-Dec-07 01:58 233 9.4
2019-Dec-07 01:53 233 8.9
2019-Dec-07 01:48 083 9.4
2019-Dec-07 01:43 083 9.4
2019-Dec-07 01:38 083 9.4
2019-Dec-07 01:33 083 8.9
2019-Dec-07 01:28 082 8.9
2019-Dec-07 01:23 082 9.4
2019-Dec-07 01:18 082 9.4
2019-Dec-07 01:13 140 9.4
2019-Dec-07 01:08 140 9.4
2019-Dec-07 01:03 212 9.4
2019-Dec-07 00:58 212 10.0
2019-Dec-07 00:53 212 10.0
2019-Dec-07 00:48 212 10.0
2019-Dec-07 00:43 212 10.0
2019-Dec-07 00:38 212 10.0
2019-Dec-07 00:33 212 10.0
2019-Dec-07 00:28 211 10.0
2019-Dec-07 00:23 211 10.0
2019-Dec-07 00:18 201 2 gusting 2 10.0
2019-Dec-07 00:13 250 10.0
2019-Dec-07 00:08 247 10.0
2019-Dec-07 00:03 247 10.0
2019-Dec-06 23:58 247 10.0
2019-Dec-06 23:53 246 9.4
2019-Dec-06 23:48 246 0 gusting 1 9.4
2019-Dec-06 23:43 314 10.0
2019-Dec-06 23:38 314 10.0
2019-Dec-06 23:33 314 10.0
2019-Dec-06 23:28 314 10.0
2019-Dec-06 23:23 314 10.0
2019-Dec-06 23:18 314 10.0
2019-Dec-06 23:13 009 10.0
2019-Dec-06 23:08 009 9.4
2019-Dec-06 23:03 009 9.4
2019-Dec-06 22:58 009 9.4
2019-Dec-06 22:53 009 9.4
2019-Dec-06 22:48 009 9.4
2019-Dec-06 22:43 009 9.4
2019-Dec-06 22:38 009 9.4
2019-Dec-06 22:33 009 9.4
2019-Dec-06 22:28 009 9.4
2019-Dec-06 22:23 009 9.4
2019-Dec-06 22:18 009 9.4
2019-Dec-06 22:13 009 9.4
2019-Dec-06 22:08 009 9.4
2019-Dec-06 22:03 009 9.4
2019-Dec-06 21:58 009 9.4
2019-Dec-06 21:53 009 9.4
2019-Dec-06 21:48 009 10.0
2019-Dec-06 21:43 009 10.0
2019-Dec-06 21:38 009 10.0
2019-Dec-06 21:33 009 10.0
2019-Dec-06 21:28 009 9.4
2019-Dec-06 21:23 009 9.4
2019-Dec-06 21:18 009 10.0
2019-Dec-06 21:13 009 10.0
2019-Dec-06 21:08 009 10.0
2019-Dec-06 21:03 009 10.0
2019-Dec-06 20:58 009 10.0
2019-Dec-06 20:53 009 10.0
2019-Dec-06 20:48 009 0 gusting 0 9.4
2019-Dec-06 20:43 022 10.0
2019-Dec-06 20:38 022 10.0
2019-Dec-06 20:33 022 10.0
2019-Dec-06 20:28 022 10.0
2019-Dec-06 20:23 022 10.0
2019-Dec-06 20:18 022 10.0
2019-Dec-06 20:13 022 10.6
2019-Dec-06 20:08 022 10.6
2019-Dec-06 20:03 022 10.6
2019-Dec-06 19:58 022 10.6
2019-Dec-06 19:53 022 10.6
2019-Dec-06 19:48 022 10.6
2019-Dec-06 19:43 022 10.6
2019-Dec-06 19:38 022 10.6
2019-Dec-06 19:33 022 10.6
2019-Dec-06 19:28 022 11.1
2019-Dec-06 19:23 022 11.1
2019-Dec-06 19:18 022 11.1
2019-Dec-06 19:13 022 11.1
2019-Dec-06 19:08 022 11.1
2019-Dec-06 19:03 022 11.7
2019-Dec-06 18:58 022 11.7
2019-Dec-06 18:53 022 11.7
2019-Dec-06 18:48 134 11.7
2019-Dec-06 18:43 134 11.7
2019-Dec-06 18:38 134 11.7
2019-Dec-06 18:33 134 11.7
2019-Dec-06 18:28 134 11.7
2019-Dec-06 18:23 134 11.7
2019-Dec-06 18:18 134 12.2
2019-Dec-06 18:13 134 12.2
2019-Dec-06 18:08 134 12.2
2019-Dec-06 18:03 134 12.2
2019-Dec-06 17:58 134 12.2
2019-Dec-06 17:53 134 12.2
2019-Dec-06 17:48 134 12.2
2019-Dec-06 17:43 134 12.2
2019-Dec-06 17:38 134 12.2
2019-Dec-06 17:33 134 12.2
2019-Dec-06 17:28 134 12.2
2019-Dec-06 17:23 134 12.8
2019-Dec-06 17:18 134 12.8
2019-Dec-06 17:13 135 12.8
2019-Dec-06 17:08 135 12.8
2019-Dec-06 17:03 135 12.8
2019-Dec-06 16:58 135 12.8
2019-Dec-06 16:53 135 12.8
2019-Dec-06 16:48 135 12.8
2019-Dec-06 16:43 135 13.3
2019-Dec-06 16:38 135 13.3
2019-Dec-06 16:33 135 13.3
2019-Dec-06 16:28 135 13.9
2019-Dec-06 16:23 135 13.9
2019-Dec-06 16:18 135 13.9
2019-Dec-06 16:13 135 13.9
2019-Dec-06 16:08 135 13.9
2019-Dec-06 16:03 135 13.9